Montgomery, AL

10:44 AM CDT on June 23, 2017 (GMT -0500)
Montgomery Regional

Weather History for KMGM - July, 2013

Change the Weather History Date:

Monday, July 1, 2013

  Actual Average Record
Temperature  
Mean Temperature 79 °F 81 °F  
Max Temperature 89 °F 92 °F 101 °F (2012)
Min Temperature 68 °F 71 °F 60 °F (1950)
Cooling Degree Days 14 16  
Month to date cooling degree days 14 16  
Year to date cooling degree days 864 774  
Since 1 June cooling degree days 505 435  
Growing Degree Days 28 (Base 50)    
Moisture  
Dew Point 66 °F    
Average Humidity 68    
Maximum Humidity 90    
Minimum Humidity 46    
Precipitation  
Precipitation 0.08 in 0.18 in 2.96 in (2003)
Month to date precipitation 0.08 0.18  
Year to date precipitation 29.64 27.69  
Sea Level Pressure  
Sea Level Pressure 29.83 in    
Wind  
Wind Speed 3 mph (WSW)    
Max Wind Speed 13 mph    
Max Gust Speed 15 mph    
Visibility 10 miles    
Events Rain    
T = Trace of Precipitation, MM = Missing Value Source: NWS Daily Summary

Daily Weather History Graph

Daily Weather History Graph

Search for Another Location

Airport or City:

Trip Planner

Search our weather history database for the weather conditions in past years. The results will help you decide how hot, cold, wet, or windy it might be!

Date:

Astronomy

Jul. 01, 2013 Rise Set
Actual Time 5:42 AM CDT 7:56 PM CDT
Civil Twilight 5:14 AM CDT 8:24 PM CDT
Nautical Twilight 4:39 AM CDT 8:59 PM CDT
Astronomical Twilight 4:02 AM CDT 9:36 PM CDT
Moon 12:59 AM CDT (7/1) 2:22 PM CDT (7/1)
Length of Visible Light 15h 10m
Length of Day
14h 13m
Waning Crescent, 35% of the Moon is Illuminated
Jul 1
Waning Crescent
Jul 8
New
Jul 15
First Quarter
Jul 22
Full
Jul 29
Last Quarter

Hourly Weather History & Observations

Time (CDT) Temp. Heat Index Dew Point Humidity Pressure Visibility Wind Dir Wind Speed Gust Speed Precip Events Conditions
12:53 AM 73.0 °F - 66.0 °F 79% 29.78 in 10.0 mi Calm Calm - N/A   Mostly Cloudy
1:53 AM 70.0 °F - 66.0 °F 87% 29.77 in 10.0 mi Calm Calm - N/A   Clear
2:53 AM 70.0 °F - 64.9 °F 84% 29.77 in 10.0 mi SW 6.9 mph - N/A   Mostly Cloudy
3:53 AM 69.1 °F - 64.9 °F 87% 29.78 in 10.0 mi Calm Calm - N/A   Clear
4:53 AM 70.0 °F - 66.0 °F 87% 29.79 in 10.0 mi Calm Calm - N/A   Scattered Clouds
5:53 AM 70.0 °F - 66.0 °F 87% 29.80 in 10.0 mi Calm Calm - N/A   Clear
6:53 AM 72.0 °F - 66.9 °F 84% 29.81 in 10.0 mi Calm Calm - N/A   Clear
7:53 AM 73.0 °F - 66.9 °F 81% 29.83 in 10.0 mi South 4.6 mph - N/A   Clear
8:53 AM 73.9 °F - 66.9 °F 79% 29.85 in 10.0 mi West 8.1 mph - N/A   Mostly Cloudy
9:53 AM 73.0 °F - 69.1 °F 87% 29.87 in 7.0 mi SSW 4.6 mph - 0.00 in Rain Light Rain
10:53 AM 72.0 °F - 68.0 °F 87% 29.86 in 6.0 mi Calm Calm - 0.08 in Rain Light Rain
11:53 AM 78.1 °F - 68.0 °F 71% 29.86 in 10.0 mi Calm Calm - 0.00 in   Clear
12:53 PM 81.0 °F 84.1 °F 69.1 °F 67% 29.84 in 10.0 mi Calm Calm - N/A   Clear
1:53 PM 84.9 °F 88.8 °F 69.1 °F 59% 29.81 in 10.0 mi WSW 3.5 mph - N/A   Clear
2:53 PM 84.9 °F 88.2 °F 68.0 °F 57% 29.81 in 10.0 mi Calm Calm - N/A   Overcast
3:53 PM 87.1 °F 88.9 °F 64.9 °F 48% 29.81 in 10.0 mi Calm Calm - N/A   Scattered Clouds
4:53 PM 88.0 °F 89.6 °F 64.9 °F 46% 29.81 in 10.0 mi WNW 8.1 mph - N/A   Scattered Clouds
5:53 PM 88.0 °F 89.3 °F 64.0 °F 45% 29.82 in 10.0 mi WNW 11.5 mph - N/A   Clear
6:53 PM 86.0 °F 87.3 °F 64.0 °F 48% 29.84 in 10.0 mi West 5.8 mph - N/A   Clear
7:53 PM 81.0 °F 82.5 °F 64.0 °F 56% 29.86 in 10.0 mi West 5.8 mph - N/A   Clear
8:53 PM 75.9 °F - 66.0 °F 71% 29.87 in 10.0 mi Calm Calm - N/A   Clear
9:53 PM 75.0 °F - 66.0 °F 73% 29.89 in 10.0 mi West 3.5 mph - N/A   Clear
10:53 PM 72.0 °F - 66.0 °F 81% 29.90 in 10.0 mi ESE 3.5 mph - N/A   Clear
11:53 PM 73.9 °F - 66.9 °F 79% 29.91 in 10.0 mi SSE 3.5 mph - N/A   Clear